TimeCDT,TemperatureF,Dew PointF,Humidity,Sea Level PressureIn,VisibilityMPH,Wind Direction,Wind SpeedMPH,Gust SpeedMPH,PrecipitationIn,Events,Conditions,WindDirDegrees,DateUTC
12:13 AM,26.6,24.8,93,29.80,10.0,Calm,Calm,-,N/A,,Clear,0,2013-10-17 05:13:00
12:33 AM,26.6,24.8,93,29.81,10.0,Calm,Calm,-,N/A,,Clear,0,2013-10-17 05:33:00
12:53 AM,28.4,26.6,93,29.80,10.0,Calm,Calm,-,N/A,,Clear,0,2013-10-17 05:53:00
1:13 AM,28.4,26.6,93,29.80,10.0,Calm,Calm,-,N/A,,Clear,0,2013-10-17 06:13:00
1:33 AM,28.4,26.6,93,29.80,10.0,Calm,Calm,-,N/A,,Clear,0,2013-10-17 06:33:00
1:53 AM,28.4,26.6,93,29.80,10.0,Calm,Calm,-,N/A,,Clear,0,2013-10-17 06:53:00
2:13 AM,28.4,24.8,86,29.80,10.0,Calm,Calm,-,N/A,,Clear,0,2013-10-17 07:13:00
2:33 AM,28.4,26.6,93,29.79,10.0,Calm,Calm,-,N/A,,Clear,0,2013-10-17 07:33:00
2:53 AM,26.6,24.8,93,29.79,10.0,Calm,Calm,-,N/A,,Clear,0,2013-10-17 07:53:00
3:13 AM,26.6,24.8,93,29.78,10.0,Calm,Calm,-,N/A,,Clear,0,2013-10-17 08:13:00
3:33 AM,26.6,24.8,93,29.78,10.0,Calm,Calm,-,N/A,,Clear,0,2013-10-17 08:33:00
3:53 AM,26.6,24.8,93,29.77,10.0,Calm,Calm,-,N/A,,Clear,0,2013-10-17 08:53:00
4:13 AM,26.6,24.8,93,29.77,10.0,Calm,Calm,-,N/A,,Clear,0,2013-10-17 09:13:00
4:33 AM,26.6,24.8,93,29.77,10.0,Calm,Calm,-,N/A,,Clear,0,2013-10-17 09:33:00
4:53 AM,26.6,24.8,93,29.77,10.0,Calm,Calm,-,N/A,,Clear,0,2013-10-17 09:53:00
5:13 AM,26.6,23.0,86,29.77,10.0,Calm,Calm,-,N/A,,Clear,0,2013-10-17 10:13:00
5:33 AM,26.6,24.8,93,29.77,10.0,Calm,Calm,-,N/A,,Clear,0,2013-10-17 10:33:00
5:53 AM,28.4,26.6,93,29.77,10.0,Calm,Calm,-,N/A,,Clear,0,2013-10-17 10:53:00
6:13 AM,28.4,26.6,93,29.77,10.0,Calm,Calm,-,N/A,,Clear,0,2013-10-17 11:13:00
6:33 AM,28.4,24.8,86,29.77,10.0,Calm,Calm,-,N/A,,Clear,0,2013-10-17 11:33:00
6:53 AM,28.4,26.6,93,29.76,10.0,Calm,Calm,-,N/A,,Mostly Cloudy,0,2013-10-17 11:53:00
7:13 AM,30.2,26.6,86,29.76,10.0,Calm,Calm,-,N/A,,Mostly Cloudy,0,2013-10-17 12:13:00
7:33 AM,30.2,26.6,86,29.76,10.0,Calm,Calm,-,N/A,,Scattered Clouds,0,2013-10-17 12:33:00
7:53 AM,30.2,28.4,93,29.76,10.0,Calm,Calm,-,N/A,,Scattered Clouds,0,2013-10-17 12:53:00
8:13 AM,30.2,28.4,93,29.76,10.0,Calm,Calm,-,N/A,,Mostly Cloudy,0,2013-10-17 13:13:00
8:33 AM,32.0,28.4,87,29.76,10.0,Calm,Calm,-,N/A,,Scattered Clouds,0,2013-10-17 13:33:00
8:53 AM,33.8,32.0,93,29.77,10.0,Calm,Calm,-,N/A,,Clear,0,2013-10-17 13:53:00
9:13 AM,35.6,33.8,93,29.77,10.0,Calm,Calm,-,N/A,,Clear,0,2013-10-17 14:13:00
9:33 AM,37.4,33.8,87,29.76,10.0,Calm,Calm,-,N/A,,Scattered Clouds,0,2013-10-17 14:33:00
9:53 AM,39.2,35.6,87,29.76,10.0,Calm,Calm,-,N/A,,Mostly Cloudy,0,2013-10-17 14:53:00
10:13 AM,39.2,35.6,87,29.76,10.0,Calm,Calm,-,N/A,,Mostly Cloudy,0,2013-10-17 15:13:00
10:33 AM,42.8,37.4,81,29.76,10.0,Calm,Calm,-,N/A,Rain,Light Rain,0,2013-10-17 15:33:00
10:53 AM,42.8,37.4,81,29.76,10.0,Calm,Calm,-,N/A,,Light Drizzle,0,2013-10-17 15:53:00
11:13 AM,44.6,39.2,81,29.76,10.0,Calm,Calm,-,N/A,Rain,Light Rain,0,2013-10-17 16:13:00
11:33 AM,44.6,39.2,81,29.76,10.0,Calm,Calm,-,N/A,Rain,Light Rain,0,2013-10-17 16:33:00
11:53 AM,44.6,39.2,81,29.76,10.0,Calm,Calm,-,N/A,Rain,Rain,0,2013-10-17 16:53:00
12:13 PM,44.6,39.2,81,29.77,10.0,Calm,Calm,-,0.01,Rain,Rain,0,2013-10-17 17:13:00
12:33 PM,44.6,39.2,81,29.77,7.0,Calm,Calm,-,0.03,Rain,Light Rain,0,2013-10-17 17:33:00
12:53 PM,44.6,41.0,87,29.76,7.0,Calm,Calm,-,N/A,Rain,Rain,0,2013-10-17 17:53:00
1:13 PM,44.6,41.0,87,29.76,7.0,Calm,Calm,-,0.02,Rain,Rain,0,2013-10-17 18:13:00
1:33 PM,46.4,42.8,87,29.76,5.0,Calm,Calm,-,0.03,,Drizzle,0,2013-10-17 18:33:00
1:53 PM,46.4,42.8,87,29.76,7.0,Calm,Calm,-,0.01,,Drizzle,0,2013-10-17 18:53:00
2:13 PM,46.4,41.0,81,29.76,7.0,Calm,Calm,-,0.02,,Drizzle,0,2013-10-17 19:13:00
2:33 PM,46.4,41.0,81,29.75,7.0,Calm,Calm,-,0.02,,Drizzle,0,2013-10-17 19:33:00
2:53 PM,46.4,41.0,81,29.75,10.0,Calm,Calm,-,N/A,,Light Drizzle,0,2013-10-17 19:53:00
3:13 PM,46.4,39.2,76,29.75,10.0,Calm,Calm,-,N/A,,Drizzle,0,2013-10-17 20:13:00
3:33 PM,44.6,41.0,87,29.75,7.0,Calm,Calm,-,0.01,,Drizzle,0,2013-10-17 20:33:00
3:53 PM,44.6,39.2,81,29.75,10.0,NE,3.5,-,N/A,Rain,Light Rain,40,2013-10-17 20:53:00
4:13 PM,44.6,41.0,87,29.75,7.0,Calm,Calm,-,0.01,,Drizzle,0,2013-10-17 21:13:00
4:33 PM,44.6,39.2,81,29.75,10.0,Calm,Calm,-,0.01,,Drizzle,0,2013-10-17 21:33:00
4:53 PM,44.6,39.2,81,29.75,10.0,Calm,Calm,-,N/A,,Drizzle,0,2013-10-17 21:53:00
5:13 PM,44.6,39.2,81,29.75,10.0,Calm,Calm,-,N/A,,Drizzle,0,2013-10-17 22:13:00
5:33 PM,42.8,39.2,87,29.76,10.0,Calm,Calm,-,0.01,,Drizzle,0,2013-10-17 22:33:00
5:53 PM,42.8,39.2,87,29.76,7.0,Calm,Calm,-,N/A,,Drizzle,0,2013-10-17 22:53:00
6:13 PM,42.8,39.2,87,29.76,10.0,Calm,Calm,-,0.01,,Drizzle,0,2013-10-17 23:13:00
6:33 PM,42.8,39.2,87,29.77,7.0,Calm,Calm,-,0.01,,Drizzle,0,2013-10-17 23:33:00
6:53 PM,42.8,39.2,87,29.77,10.0,Calm,Calm,-,N/A,Rain,Light Rain,0,2013-10-17 23:53:00
7:13 PM,42.8,39.2,87,29.77,10.0,Calm,Calm,-,N/A,,Light Drizzle,0,2013-10-18 00:13:00
7:33 PM,42.8,39.2,87,29.78,10.0,Calm,Calm,-,0.01,,Drizzle,0,2013-10-18 00:33:00
7:53 PM,42.8,39.2,87,29.78,10.0,Calm,Calm,-,0.01,Rain,Rain,0,2013-10-18 00:53:00
8:13 PM,42.8,39.2,87,29.78,7.0,Calm,Calm,-,0.02,,Drizzle,0,2013-10-18 01:13:00
8:33 PM,42.8,39.2,87,29.78,10.0,Calm,Calm,-,0.02,,Drizzle,0,2013-10-18 01:33:00
8:54 PM,42.8,37.4,81,29.78,10.0,Calm,Calm,-,N/A,,Drizzle,0,2013-10-18 01:54:00
9:13 PM,42.8,39.2,87,29.78,7.0,Calm,Calm,-,0.01,,Drizzle,0,2013-10-18 02:13:00
9:33 PM,41.0,37.4,87,29.78,7.0,Calm,Calm,-,0.01,Rain,Rain,0,2013-10-18 02:33:00
9:53 PM,41.0,37.4,87,29.79,10.0,Calm,Calm,-,0.01,,Drizzle,0,2013-10-18 02:53:00
10:13 PM,41.0,37.4,87,29.79,10.0,Calm,Calm,-,0.01,Rain,Rain,0,2013-10-18 03:13:00
10:33 PM,41.0,37.4,87,29.79,7.0,Calm,Calm,-,0.02,,Drizzle,0,2013-10-18 03:33:00
10:53 PM,41.0,37.4,87,29.79,10.0,Calm,Calm,-,N/A,,Drizzle,0,2013-10-18 03:53:00
11:13 PM,41.0,37.4,87,29.79,10.0,Calm,Calm,-,N/A,,Light Drizzle,0,2013-10-18 04:13:00
11:33 PM,39.2,37.4,93,29.78,10.0,Calm,Calm,-,N/A,,Light Drizzle,0,2013-10-18 04:33:00
11:53 PM,39.2,35.6,87,29.78,10.0,NW,3.5,-,N/A,,Light Drizzle,320,2013-10-18 04:53:00